Coldwater, MI

7:06 PM EDT on May 22, 2017 (GMT -0400)
Branch County Memorial

Weather History for KOEB - June, 2013

Change the Weather History Date:

Monday, June 3, 2013

  Actual Average (KJYM) Record (KJYM)
Temperature  
Mean Temperature 54 °F -  
Max Temperature 65 °F 74 °F 88 °F (1963)
Min Temperature 43 °F 50 °F 33 °F (1977)
Degree Days  
Heating Degree Days 11    
Growing Degree Days 4 (Base 50)    
Moisture  
Dew Point 39 °F    
Average Humidity 56    
Maximum Humidity 84    
Minimum Humidity 34    
Precipitation  
Precipitation 0.00 in - - ()
Sea Level Pressure  
Sea Level Pressure 30.05 in    
Wind  
Wind Speed 6 mph (NNE)    
Max Wind Speed 12 mph    
Max Gust Speed -    
Visibility 10 miles    
Events      
Averages and records for this station are not official NWS values.
T = Trace of Precipitation, MM = Missing Value Source: NWS Daily Summary

Daily Weather History Graph

Daily Weather History Graph

Search for Another Location

Airport or City:

Trip Planner

Search our weather history database for the weather conditions in past years. The results will help you decide how hot, cold, wet, or windy it might be!

Date:

Astronomy

Jun. 03, 2013 Rise Set
Actual Time 6:06 AM EDT 9:10 PM EDT
Civil Twilight 5:32 AM EDT 9:44 PM EDT
Nautical Twilight 4:49 AM EDT 10:27 PM EDT
Astronomical Twilight 3:58 AM EDT 11:18 PM EDT
Moon 3:07 AM EDT (6/3) 4:36 PM EDT (6/3)
Length of Visible Light 16h 11m
Length of Day
15h 04m
Waning Crescent, 22% of the Moon is Illuminated
Jun 3
Waning Crescent
Jun 8
New
Jun 16
First Quarter
Jun 23
Full
Jun 30
Last Quarter

Hourly Weather History & Observations

Time (EDT) Temp. Windchill Dew Point Humidity Pressure Visibility Wind Dir Wind Speed Gust Speed Precip Events Conditions
12:15 AM 52.9 °F - 44.1 °F 72% 30.00 in 10.0 mi North 9.2 mph - N/A   Overcast
12:35 AM 52.9 °F - 43.0 °F 69% 30.00 in 10.0 mi North 8.1 mph - N/A   Overcast
12:55 AM 52.3 °F - 43.0 °F 70% 30.00 in 10.0 mi NNE 8.1 mph - N/A   Overcast
1:15 AM 51.8 °F - 42.1 °F 69% 30.01 in 10.0 mi North 8.1 mph - N/A   Overcast
1:35 AM 51.3 °F - 41.7 °F 70% 30.01 in 10.0 mi NNE 11.5 mph - N/A   Overcast
1:55 AM 50.9 °F - 41.5 °F 70% 30.02 in 10.0 mi North 9.2 mph - N/A   Overcast
2:14 AM 50.7 °F - 41.5 °F 71% 30.02 in 10.0 mi NE 6.9 mph - N/A   Overcast
2:35 AM 49.5 °F - 40.5 °F 71% 30.02 in 10.0 mi NNE 6.9 mph - N/A   Overcast
2:55 AM 49.5 °F - 40.3 °F 71% 30.02 in 10.0 mi NNE 4.6 mph - N/A   Overcast
3:14 AM 49.5 °F - 40.6 °F 72% 30.03 in 10.0 mi North 4.6 mph - N/A   Overcast
3:35 AM 49.5 °F - 40.6 °F 72% 30.03 in 10.0 mi NNE 6.9 mph - N/A   Overcast
3:55 AM 49.5 °F - 40.6 °F 72% 30.03 in 10.0 mi NNE 9.2 mph - N/A   Overcast
4:15 AM 47.7 °F - 40.1 °F 75% 30.03 in 10.0 mi NE 6.9 mph - N/A   Scattered Clouds
4:35 AM 46.6 °F - 39.7 °F 77% 30.04 in 10.0 mi NE 5.8 mph - N/A   Clear
4:55 AM 45.1 °F 42.8 °F 39.6 °F 81% 30.04 in 10.0 mi NE 4.6 mph - N/A   Clear
5:15 AM 44.8 °F 42.4 °F 39.7 °F 82% 30.04 in 10.0 mi ENE 4.6 mph - N/A   Clear
5:35 AM 44.6 °F 43.1 °F 39.2 °F 81% 30.03 in 10.0 mi East 3.5 mph - N/A   Clear
5:55 AM 43.3 °F 40.7 °F 38.3 °F 82% 30.04 in 10.0 mi NE 4.6 mph - N/A   Clear
6:15 AM 43.3 °F 40.7 °F 38.3 °F 82% 30.04 in 10.0 mi NNE 4.6 mph - N/A   Clear
6:35 AM 43.9 °F 42.3 °F 38.3 °F 81% 30.04 in 10.0 mi North 3.5 mph - N/A   Clear
6:55 AM 44.1 °F 41.5 °F 39.6 °F 84% 30.06 in 10.0 mi NNW 4.6 mph - N/A   Clear
7:15 AM 46.0 °F 44.8 °F 39.2 °F 77% 30.06 in 10.0 mi NNE 3.5 mph - N/A   Clear
7:35 AM 47.5 °F - 37.8 °F 69% 30.07 in 10.0 mi NNE 3.5 mph - N/A   Clear
7:55 AM 48.0 °F - 37.9 °F 68% 30.07 in 10.0 mi NE 5.8 mph - N/A   Clear
8:15 AM 48.6 °F - 36.5 °F 63% 30.08 in 10.0 mi NNE 3.5 mph - N/A   Clear
8:35 AM 49.3 °F - 36.9 °F 62% 30.08 in 10.0 mi NNE 3.5 mph - N/A   Clear
8:54 AM 50.2 °F - 36.9 °F 60% 30.08 in 10.0 mi NNE 3.5 mph - N/A   Clear
9:15 AM 50.9 °F - 35.8 °F 56% 30.08 in 10.0 mi NE 3.5 mph - N/A   Clear
9:35 AM 52.0 °F - 36.7 °F 56% 30.09 in 10.0 mi Calm Calm - N/A   Clear
9:54 AM 52.9 °F - 36.0 °F 53% 30.09 in 10.0 mi NNE 3.5 mph - N/A   Clear
10:15 AM 54.0 °F - 36.0 °F 51% 30.09 in 10.0 mi ENE 4.6 mph - N/A   Clear
10:34 AM 55.4 °F - 38.1 °F 52% 30.09 in 10.0 mi NNE 5.8 mph - N/A   Clear
10:55 AM 55.4 °F - 36.0 °F 48% 30.09 in 10.0 mi ENE 5.8 mph - N/A   Clear
11:14 AM 56.3 °F - 36.9 °F 48% 30.10 in 10.0 mi North 8.1 mph - N/A   Clear
11:35 AM 57.2 °F - 37.4 °F 48% 30.10 in 10.0 mi NW 5.8 mph - N/A   Clear
11:55 AM 58.1 °F - 37.9 °F 47% 30.10 in 10.0 mi NNE 5.8 mph - N/A   Clear
12:14 PM 58.3 °F - 37.2 °F 45% 30.10 in 10.0 mi ENE 3.5 mph - N/A   Clear
12:35 PM 59.2 °F - 37.2 °F 44% 30.10 in 10.0 mi NE 5.8 mph - N/A   Clear
12:54 PM 59.5 °F - 36.7 °F 43% 30.09 in 10.0 mi North 9.2 mph - N/A   Clear
1:15 PM 60.8 °F - 36.9 °F 41% 30.09 in 10.0 mi ENE 5.8 mph - N/A   Clear
1:35 PM 61.3 °F - 38.7 °F 43% 30.09 in 10.0 mi NE 6.9 mph - N/A   Clear
1:54 PM 61.9 °F - 38.3 °F 42% 30.08 in 10.0 mi NW 3.5 mph - N/A   Clear
2:15 PM 61.7 °F - 36.0 °F 38% 30.07 in 10.0 mi Calm Calm - N/A   Clear
2:35 PM 62.2 °F - 37.4 °F 40% 30.06 in 10.0 mi NE 6.9 mph - N/A   Clear
2:55 PM 62.8 °F - 37.4 °F 39% 30.05 in 10.0 mi NE 8.1 mph - N/A   Clear
3:15 PM 63.5 °F - 37.2 °F 38% 30.04 in 10.0 mi NNE 5.8 mph - N/A   Clear
3:35 PM 63.7 °F - 36.3 °F 36% 30.04 in 10.0 mi NNE 6.9 mph - N/A   Clear
3:55 PM 64.2 °F - 37.0 °F 37% 30.03 in 10.0 mi North 3.5 mph - N/A   Clear
4:15 PM 64.2 °F - 35.2 °F 34% 30.03 in 10.0 mi Calm Calm - N/A   Clear
4:35 PM 65.3 °F - 36.7 °F 35% 30.04 in 10.0 mi NNE 8.1 mph - N/A   Clear
4:55 PM 65.5 °F - 37.0 °F 35% 30.03 in 10.0 mi North 6.9 mph - N/A   Clear
5:15 PM 65.3 °F - 36.5 °F 34% 30.04 in 10.0 mi WNW 5.8 mph - N/A   Clear
5:35 PM 65.5 °F - 38.1 °F 36% 30.03 in 10.0 mi NNW 9.2 mph - N/A   Clear
5:55 PM 65.8 °F - 37.8 °F 36% 30.03 in 10.0 mi NNW 6.9 mph - N/A   Clear
6:14 PM 65.5 °F - 37.8 °F 36% 30.04 in 10.0 mi WNW 3.5 mph - N/A   Clear
6:35 PM 65.3 °F - 41.2 °F 41% 30.03 in 10.0 mi West 5.8 mph - N/A   Clear
6:55 PM 64.6 °F - 38.8 °F 39% 30.03 in 10.0 mi NW 6.9 mph - N/A   Clear
7:15 PM 64.2 °F - 39.0 °F 39% 30.03 in 10.0 mi North 4.6 mph - N/A   Clear
7:35 PM 63.9 °F - 38.7 °F 39% 30.03 in 10.0 mi NW 8.1 mph - N/A   Clear
7:55 PM 63.3 °F - 38.5 °F 40% 30.04 in 10.0 mi NNW 3.5 mph - N/A   Clear
8:15 PM 61.9 °F - 39.2 °F 43% 30.04 in 10.0 mi NW 5.8 mph - N/A   Clear
8:35 PM 61.0 °F - 40.6 °F 47% 30.05 in 10.0 mi NNW 4.6 mph - N/A   Clear
8:55 PM 60.4 °F - 40.1 °F 47% 30.04 in 10.0 mi Calm Calm - N/A   Clear
9:15 PM 60.8 °F - 39.2 °F 45% 30.05 in 10.0 mi Calm Calm - N/A   Clear
9:35 PM 57.7 °F - 42.3 °F 56% 30.06 in 10.0 mi NW 3.5 mph - N/A   Clear
9:55 PM 56.5 °F - 42.4 °F 59% 30.07 in 10.0 mi NW 4.6 mph - N/A   Clear
10:15 PM 55.9 °F - 42.3 °F 60% 30.08 in 10.0 mi North 4.6 mph - N/A   Clear
10:35 PM 55.6 °F - 42.3 °F 61% 30.09 in 10.0 mi NNW 3.5 mph - N/A   Clear
10:55 PM 55.6 °F - 41.9 °F 60% 30.10 in 10.0 mi Calm Calm - N/A   Clear
11:15 PM 54.1 °F - 41.5 °F 62% 30.10 in 10.0 mi Calm Calm - N/A   Clear
11:35 PM 52.9 °F - 41.4 °F 65% 30.10 in 10.0 mi Calm Calm - N/A   Clear
11:55 PM 52.2 °F - 43.7 °F 73% 30.10 in 10.0 mi Calm Calm - N/A   Clear